Location: Caltech
(34.1382°N, 118.1253°W)
Time: 17:44:00
(UTC-07:00)

Iridium 18 - Visible Passes

Search period start: 22 July 2017 00:00
Search period end: 01 August 2017 00:00
Orbit: 762 x 764 km, 86.4° (Epoch: 22 July)

Date Brightness Start Highest point End Pass type
(mag) Time Alt. Az. Time Alt. Az. Time Alt. Az.
22 Jul 6.5 04:59:34 10° SSE 05:04:29 49° E 05:09:26 10° NNE visible
23 Jul 7.8 04:22:57 10° SE 04:26:54 23° E 04:30:51 10° NNE visible
24 Jul 8.7 03:49:18 10° E 03:49:28 10° ENE 03:49:37 10° ENE visible
24 Jul 5.5 05:24:02 10° S 05:29:08 70° W 05:34:17 10° N visible
25 Jul 6.3 04:46:24 10° SSE 04:51:23 53° E 04:56:23 10° NNE visible
26 Jul 7.6 04:09:40 10° SE 04:13:46 25° E 04:17:53 10° NNE visible
27 Jul 8.4 03:34:51 10° E 03:36:19 11° ENE 03:37:47 10° ENE visible
27 Jul 5.5 05:10:58 10° SSW 05:16:03 64° W 05:21:10 10° N visible
28 Jul 6.1 04:33:14 10° SSE 04:38:16 59° E 04:43:19 10° N visible
29 Jul 7.4 03:56:24 10° SE 04:00:38 27° E 04:04:54 10° NNE visible
30 Jul 8.2 03:21:07 10° ESE 03:23:10 12° E 03:25:13 10° NE visible
30 Jul 5.6 04:57:55 10° SSW 05:02:57 58° W 05:08:02 10° N visible
31 Jul 5.9 04:20:19 11° S 04:25:09 64° E 04:30:15 10° N visible
